Thunderstorms From: 25-05-2018 15:00 Until: 26-05-2018 15:00 warning for: Thunderstorms Level: Yellow info button

Although rather usual in this region, locally or potentially dangerous phenomena are expected. (such as local winds, summer thunderstorms, rising streams or high waves) Be aware and pay attention to the latest weather updates, especially if you carry out activities exposed to weather or close to a stream or shoreline. 


Meteo18 Weather Cam more information Meteo18 Weather Cam


warning for Thunderstorms more information blitzortung!


Rain radar more information rain snow radar


Visit our other weather sites:

Template documentation
and downloads

And another site



Weather Underground History page Text

Daily Summary for May 17, 2016 Units:  Metric    English   Both
« Previous Day
Next Day »
Daily Weekly Monthly Yearly Custom
  High: Low: Average:
Temperature: -17.8 °C -8.8 °C -7.9 °C
Dew Point: -17.8 °C -13.2 °C -12.4 °C
Humidity: Humidity % 49 % 58 %
Wind Speed: 0 km/h 0 km/h 0.6 km/h
Wind Gust: 0 km/h - -
Wind:- - SW
Pressure: 0 hPa 34442.4 hPa -
Precipitation: 0 mm    
Historical Graphs
 
 
Tabular Data for May 17, 2016
Time Temperature Dew Point Pressure Wind Wind Speed Wind Gust Humidity Rainfall Rate (Hourly)
-17.8 °C -17.8 °C 0 hPa Calm     Humidity % 0 mm
15:12 -6.6 °C -11.9 °C 34496.6 hPa SSW 2.6 km/h 10.3 km/h 54 % 0 mm
15:17 -6.8 °C -12.2 °C 34496.6 hPa Calm   10.3 km/h 54 % 0 mm
15:22 -6.9 °C -12.7 °C 34496.6 hPa WSW 2.6 km/h 7.7 km/h 51 % 0 mm
15:32 -6.8 °C -12.6 °C 34496.6 hPa SW 10.3 km/h 10.3 km/h 51 % 0 mm
15:37 -6.9 °C -12.3 °C 34496.6 hPa SW 2.6 km/h 12.9 km/h 53 % 0 mm
15:42 -6.9 °C -12.5 °C 34496.6 hPa Calm   12.9 km/h 52 % 0 mm
15:47 -6.8 °C -12.7 °C 34496.6 hPa Calm   12.9 km/h 50 % 0 mm
15:52 -6.9 °C -12.9 °C 34496.6 hPa Calm   7.7 km/h 50 % 0 mm
15:57 -6.9 °C -12.7 °C 34496.6 hPa SSE 7.7 km/h 7.7 km/h 51 % 0 mm
16:02 -6.9 °C -12.7 °C 34496.6 hPa Calm   7.7 km/h 51 % 0 mm
16:07 -7.1 °C -13.2 °C 34496.6 hPa SW 2.6 km/h 7.7 km/h 49 % 0 mm
16:12 -7.2 °C -12.9 °C 34486.4 hPa Calm   7.7 km/h 51 % 0 mm
16:17 -7.2 °C -12.7 °C 34486.4 hPa Calm   7.7 km/h 53 % 0 mm
16:22 -7.3 °C -12.6 °C 34486.4 hPa Calm   5.1 km/h 54 % 0 mm
16:27 -7.2 °C -12.8 °C 34486.4 hPa Calm   5.1 km/h 52 % 0 mm
16:32 -7.1 °C -12.6 °C 34486.4 hPa Calm   5.1 km/h 53 % 0 mm
16:37 -7.2 °C -12.5 °C 34486.4 hPa Calm     54 % 0 mm
16:42 -7.4 °C -13.1 °C 34476.3 hPa Calm     51 % 0 mm
16:47 -7.4 °C -12.2 °C 34476.3 hPa Calm     57 % 0 mm
16:52 -7.4 °C -12 °C 34476.3 hPa Calm     59 % 0 mm
16:57 -7.7 °C -12.3 °C 34476.3 hPa Calm     58 % 0 mm
17:02 -7.7 °C -12.1 °C 34476.3 hPa SSW 2.6 km/h 5.1 km/h 60 % 0 mm
17:07 -7.7 °C -12.7 °C 34476.3 hPa Calm   5.1 km/h 56 % 0 mm
17:12 -7.7 °C -12.2 °C 34476.3 hPa Calm   5.1 km/h 59 % 0 mm
17:17 -7.8 °C -12.3 °C 34476.3 hPa Calm   5.1 km/h 59 % 0 mm
17:22 -7.8 °C -12.4 °C 34462.7 hPa Calm   5.1 km/h 58 % 0 mm
17:32 -7.7 °C -12.1 °C 34462.7 hPa Calm     60 % 0 mm
17:42 -7.7 °C -12.5 °C 34462.7 hPa Calm     57 % 0 mm
17:47 -7.6 °C -12.2 °C 34462.7 hPa Calm     59 % 0 mm
17:57 -7.6 °C -12 °C 34462.7 hPa Calm     60 % 0 mm
18:02 -7.6 °C -12.2 °C 34462.7 hPa Calm   5.1 km/h 59 % 0 mm
18:07 -7.6 °C -12.3 °C 34462.7 hPa Calm   5.1 km/h 58 % 0 mm
18:12 -7.7 °C -12.2 °C 34462.7 hPa Calm   5.1 km/h 59 % 0 mm
18:17 -7.7 °C -12.5 °C 34462.7 hPa Calm   2.6 km/h 57 % 0 mm
18:22 -7.6 °C -12 °C 34452.6 hPa Calm   2.6 km/h 60 % 0 mm
18:27 -7.7 °C -12.1 °C 34452.6 hPa Calm     60 % 0 mm
18:32 -7.8 °C -12.3 °C 34452.6 hPa SW 2.6 km/h   59 % 0 mm
18:37 -7.8 °C -11.9 °C 34452.6 hPa Calm   5.1 km/h 62 % 0 mm
18:42 -7.8 °C -12.3 °C 34452.6 hPa Calm   5.1 km/h 59 % 0 mm
18:52 -8 °C -11.7 °C 34452.6 hPa Calm     65 % 0 mm
18:57 -8.1 °C -12.2 °C 34452.6 hPa Calm     62 % 0 mm
19:02 -8.2 °C -12.3 °C 34452.6 hPa Calm     62 % 0 mm
19:07 -8.2 °C -12.4 °C 34452.6 hPa Calm     61 % 0 mm
19:12 -8.2 °C -12.7 °C 34452.6 hPa Calm     59 % 0 mm
19:22 -8.3 °C -12.3 °C 34452.6 hPa Calm   7.7 km/h 63 % 0 mm
19:27 -8.4 °C -12.4 °C 34442.4 hPa Calm   7.7 km/h 62 % 0 mm
19:32 -8.4 °C -12.1 °C 34442.4 hPa Calm   2.6 km/h 65 % 0 mm
19:37 -8.4 °C -12.1 °C 34452.6 hPa Calm   2.6 km/h 65 % 0 mm
19:42 -8.5 °C -12.3 °C 34442.4 hPa Calm   2.6 km/h 64 % 0 mm
19:47 -8.5 °C -11.8 °C 34442.4 hPa Calm   2.6 km/h 68 % 0 mm
19:52 -8.6 °C -11.7 °C 34442.4 hPa Calm     69 % 0 mm
19:57 -8.6 °C -11.7 °C 34442.4 hPa Calm     70 % 0 mm
20:02 -8.7 °C -11.7 °C 34442.4 hPa Calm     70 % 0 mm
20:07 -8.7 °C -11.8 °C 34442.4 hPa Calm     70 % 0 mm
20:12 -8.8 °C -11.9 °C 34442.4 hPa Calm     69 % 0 mm
20:17 -8.8 °C -11.8 °C 34442.4 hPa Calm     70 % 0 mm
Meteo18
Compliments of Weather Underground - 4 mb

Script developed by  Jim McMurry - jmcmurry@mwt.net Adapted for the template by  Wim van der Kuil - Leuven-Template.eu

You find our weather info also at:

European Weather Network

Weather Underground

Equipment we use:

Weather-station
Davis Vue

Weather-program
Meteobridge

Weather-server
Raspberry PI 2 B+

Provider
1 and 1

Davis Vue

Meteobridge

Raspberry PI 2 B+

1 and 1